This is the latest recevied weather packets stored in our database for station/object KE5YIM-13. If no packets are shown the sender has not sent any weather packets the latest 10 day(s).
| Time | Temp. | Humidity | Pressure | Rain* | Wind** | Luminosity | Snow |
|---|---|---|---|---|---|---|---|
| 1777912484 | 18.89° C | 38% | 1012.2 hPa | 0 mm | - | 815 W/m² | - |
| 1777912181 | 18.89° C | 37% | 1012.3 hPa | 0 mm | - | 819 W/m² | - |
| 1777911877 | 18.89° C | 39% | 1012.3 hPa | 0 mm | - | 811 W/m² | - |
| 1777911573 | 19.44° C | 41% | 1012.3 hPa | 0 mm | - | 810 W/m² | - |
| 1777911269 | 18.89° C | 42% | 1012.6 hPa | 0 mm | - | 803 W/m² | - |
| 1777910967 | 18.89° C | 40% | 1012.5 hPa | 0 mm | - | 801 W/m² | - |
| 1777910665 | 18.33° C | 40% | 1012.6 hPa | 0 mm | - | 802 W/m² | - |
| 1777910361 | 18.33° C | 39% | 1012.7 hPa | 0 mm | - | 786 W/m² | - |
| 1777910058 | 18.33° C | 39% | 1012.7 hPa | 0 mm | - | 786 W/m² | - |
| 1777909755 | 18.33° C | 40% | 1013 hPa | 0 mm | - | 786 W/m² | - |
| 1777909451 | 18.33° C | 37% | 1013.1 hPa | 0 mm | - | 785 W/m² | - |
| 1777909150 | 18.33° C | 38% | 1013.1 hPa | 0 mm | - | 786 W/m² | - |
| 1777908848 | 18.33° C | 40% | 1013 hPa | 0 mm | - | 786 W/m² | - |
| 1777908544 | 18.33° C | 41% | 1013.1 hPa | 0 mm | - | 764 W/m² | - |
| 1777908241 | 17.78° C | 40% | 1013.3 hPa | 0 mm | - | 761 W/m² | - |
| 1777907938 | 17.78° C | 40% | 1013.4 hPa | 0 mm | - | 752 W/m² | - |
| 1777907633 | 18.33° C | 40% | 1013.4 hPa | 0 mm | - | 745 W/m² | - |
| 1777907328 | 17.78° C | 40% | 1013.2 hPa | 0 mm | - | 733 W/m² | - |
| 1777907025 | 17.78° C | 43% | 1013.4 hPa | 0 mm | - | 726 W/m² | - |
| 1777906723 | 17.22° C | 42% | 1013.4 hPa | 0 mm | - | 715 W/m² | - |
| 1777906419 | 17.22° C | 44% | 1013.5 hPa | 0 mm | - | 706 W/m² | - |
| 1777906116 | 17.22° C | 44% | 1013.6 hPa | 0 mm | - | 699 W/m² | - |
| 1777905812 | 16.67° C | 43% | 1013.6 hPa | 0 mm | - | 692 W/m² | - |
| 1777905510 | 17.22° C | 42% | 1013.5 hPa | 0 mm | - | 677 W/m² | - |
| 1777905206 | 17.78° C | 42% | 1013.6 hPa | 0 mm | - | 668 W/m² | - |
* Rain latest hour (hover to see other rain measurements)
** Current wind speed in m/s (hover to see current wind gust speed)